Chattahoochee River Whitewater Weather Center

Moon Phase Calendar



Online Cameras

 


      

Current Conditions in Phenix City
6/27/2022 9:52:47 AM

74°F
Feels Like 74
Clouds
Humidity
83%
Pressure
30.09"
Wind
3.4 mph (ESE)
Dew Point
68°F
UV Index
4/10 (Moderate)
Visibility
6 mi

Hourly Forecast

Date & Time Mon, Jun 27
9:00 AM
Mon, Jun 27
10:00 AM
Mon, Jun 27
11:00 AM
Mon, Jun 27
12:00 PM
Mon, Jun 27
1:00 PM
Mon, Jun 27
2:00 PM
Mon, Jun 27
3:00 PM
Mon, Jun 27
4:00 PM
Mon, Jun 27
5:00 PM
Mon, Jun 27
6:00 PM
Mon, Jun 27
7:00 PM
Mon, Jun 27
8:00 PM
Mon, Jun 27
9:00 PM
Mon, Jun 27
10:00 PM
Mon, Jun 27
11:00 PM
Tue, Jun 28
12:00 AM
Tue, Jun 28
1:00 AM
Tue, Jun 28
2:00 AM
Tue, Jun 28
3:00 AM
Tue, Jun 28
4:00 AM
Tue, Jun 28
5:00 AM
Tue, Jun 28
6:00 AM
Tue, Jun 28
7:00 AM
Tue, Jun 28
8:00 AM
Tue, Jun 28
9:00 AM
Tue, Jun 28
10:00 AM
Tue, Jun 28
11:00 AM
Tue, Jun 28
12:00 PM
Tue, Jun 28
1:00 PM
Tue, Jun 28
2:00 PM
Tue, Jun 28
3:00 PM
Tue, Jun 28
4:00 PM
Tue, Jun 28
5:00 PM
Tue, Jun 28
6:00 PM
Tue, Jun 28
7:00 PM
Tue, Jun 28
8:00 PM
Tue, Jun 28
9:00 PM
Tue, Jun 28
10:00 PM
Tue, Jun 28
11:00 PM
Wed, Jun 29
12:00 AM
Wed, Jun 29
1:00 AM
Wed, Jun 29
2:00 AM
Wed, Jun 29
3:00 AM
Wed, Jun 29
4:00 AM
Wed, Jun 29
5:00 AM
Wed, Jun 29
6:00 AM
Wed, Jun 29
7:00 AM
Wed, Jun 29
8:00 AM
Condition
Clouds

Clouds

Clouds

Clouds

Clouds

Clouds

Clouds

Clouds

Clouds

Clouds

Clouds

Clouds

Clouds

Clouds

Clouds

Clouds

Clouds

Clouds

Clouds

Clouds

Clouds

Clouds

Clouds

Clouds

Clouds

Clouds

Clouds

Clouds

Clouds

Clouds

Clouds

Rain

Rain

Rain

Clouds

Clouds

Clouds

Rain

Clouds

Clouds

Clouds

Rain

Rain

Rain

Rain

Rain

Rain

Rain
Temperature 75°F74°F77°F81°F87°F93°F97°F93°F91°F90°F88°F83°F81°F80°F78°F78°F77°F77°F76°F76°F74°F73°F73°F75°F78°F83°F88°F92°F95°F97°F95°F87°F85°F86°F82°F78°F76°F73°F73°F72°F72°F72°F71°F71°F70°F70°F70°F70°F
Feels Like 76°F74°F78°F85°F91°F96°F98°F94°F94°F93°F91°F87°F84°F80°F79°F78°F78°F78°F77°F76°F75°F74°F74°F76°F79°F85°F90°F94°F96°F98°F96°F90°F88°F89°F85°F79°F77°F74°F74°F74°F73°F73°F72°F72°F71°F71°F71°F72°F
Cloudiness 99%100%99%99%98%98%95%98%98%99%99%99%99%96%88%83%86%88%99%96%81%86%86%86%99%97%97%97%97%97%100%100%97%91%90%91%98%64%53%50%53%61%100%100%100%100%100%100%
Visibility 6 mi6 mi6 mi6 mi6 mi6 mi6 mi6 mi6 mi6 mi6 mi6 mi6 mi6 mi6 mi6 mi6 mi6 mi6 mi6 mi6 mi6 mi6 mi6 mi6 mi6 mi6 mi6 mi6 mi6 mi6 mi6 mi6 mi6 mi6 mi6 mi6 mi6 mi6 mi6 mi6 mi6 mi6 mi6 mi6 mi6 mi6 mi6 mi
Precipitation 0%0%0%0%0%0%4%0%4%7%15%15%8%8%8%8%15%15%7%4%4%4%0%0%0%0%0%0%0%0%8%24%32%43%51%56%69%69%69%61%69%65%41%56%64%72%72%71%
Humidity 79%83%75%65%53%42%32%37%43%45%49%61%68%68%69%72%73%71%74%75%79%81%83%76%67%56%49%42%35%31%33%50%55%54%67%77%82%87%88%89%87%84%87%92%95%96%97%96%
Dew Point 68°F68°F68°F69°F68°F66°F62°F63°F65°F66°F66°F68°F69°F68°F67°F68°F67°F66°F67°F67°F67°F67°F67°F67°F66°F65°F66°F65°F63°F62°F61°F66°F67°F67°F69°F70°F70°F69°F68°F68°F68°F66°F67°F68°F68°F68°F68°F69°F
Pressure 30.09"30.09"30.09"30.09"30.06"30.03"30"29.97"29.97"29.97"29.97"30"30"30"30.03"30.03"30.03"30.03"30.03"30"30"30.03"30.03"30.06"30.06"30.06"30.06"30.06"30.06"30.03"30"30"30"30"30.03"30.06"30.09"30.09"30.12"30.12"30.12"30.12"30.12"30.12"30.12"30.12"30.15"30.15"
Wind Speed 4 mph4 mph2.8 mph1.1 mph0.2 mph1.4 mph1.7 mph2.8 mph2.9 mph3.6 mph7.7 mph11.1 mph8.9 mph7.9 mph7.3 mph7.7 mph6.7 mph6.6 mph5.6 mph5.8 mph5.5 mph4.9 mph4.9 mph5.3 mph5 mph4.1 mph4.2 mph4.5 mph4.8 mph4.6 mph3.7 mph8.7 mph6.5 mph10.8 mph9.6 mph11 mph13.5 mph9.6 mph8 mph4.4 mph5.5 mph5.5 mph5.2 mph4.1 mph3.8 mph3.9 mph3.5 mph3.1 mph
Wind
Direction
186°
S
192°
SSW
202°
SSW
220°
SW
39°
NE
11°
N
357°
N
15°
NNE
18°
NNE
30°
NNE
353°
N
344°
NNW

N
16°
NNE
23°
NNE
25°
NNE
58°
ENE
56°
NE
48°
NE
52°
NE
53°
NE
64°
ENE
66°
ENE
70°
ENE
83°
E
119°
ESE
158°
SSE
181°
S
190°
S
208°
SSW
204°
SSW
114°
ESE
72°
ENE
44°
NE
41°
NE
53°
NE
66°
ENE
81°
E
127°
SE
143°
SE
89°
E
104°
ESE
112°
ESE
104°
ESE
67°
ENE
56°
NE
28°
NNE
33°
NNE

Daily Forecast

Date High Low Precip. Humidity
Today
Jun 27

Clouds
97 °F
73 °F
15%
53%
Tuesday
Jun 28

Rain
97 °F
73 °F
69%
35%
Wednesday
Jun 29

Rain
79 °F
70 °F
100%
86%
Thursday
Jun 30

Rain
91 °F
71 °F
96%
46%
Friday
Jul 1

Rain
79 °F
72 °F
100%
93%
Saturday
Jul 2

Rain
93 °F
70 °F
38%
43%
Sunday
Jul 3

Rain
92 °F
73 °F
100%
48%
Monday
Jul 4

Rain
92 °F
72 °F
100%
55%
Tuesday
Jul 5

Rain
87 °F
73 °F
84%
61%
Wednesday
Jul 6

Rain
86 °F
73 °F
84%
63%
Thursday
Jul 7

Rain
92 °F
75 °F
82%
62%
Friday
Jul 8

Rain
87 °F
75 °F
78%
71%
Saturday
Jul 9

Rain
93 °F
75 °F
58%
50%
Sunday
Jul 10

Clear
95 °F
70 °F
54%
28%
Monday
Jul 11

Clouds
101 °F
73 °F
0%
29%
Tuesday
Jul 12

Clear
103 °F
77 °F
0%
29%

Temperature 8-14 Day Outlook



Precipitation 8-14 Day Outlook






About Us
Contact Us
Site Map
Search Site
Advertise With Us
   
www.ChattahoocheeRiverWhitewater.com
THE CHATTAHOOCHEE RIVER WHITEWATER WEBSITE

Copyright 2022, Discover Rivers
Privacy    |    Legal